Find Starlink 34073

NORAD ID: 64606 Int'l Des: 2025-137 Owner: SPXS Country: US Constellation: starlink operational
LEOCIRCULAR

当前视图

正在加载3D地球...

About Starlink 34073

Starlink 34073 (NORAD 64606) is a starlink constellation satellite (v2 mini) launched Jun 25, 2025 by SPXS of US. It operates in LEO, CIRCULAR orbit with a mass of 575.00 kg.

即将过境

Passes for default location (London). Set your location on the main map for personalized predictions.

高度历史

Loading altitude history...

两行轨道根数

1 64606U 25137N 26263.24459097 .00012171 00000-0 37074-3 0 9995
2 64606 53.1597 150.7331 0001398 51.7109 308.4019 15.34401749 70413
Epoch: Sep 20, 2026 • Age: 21 hours

当前状态

高度 470.6 km
远地点 / 近地点 N/A
速度 7.63 km/s
星下点 -24.63°S, 60.07°W
发射日期 Jun 25, 2025
运行时间 1.2 years
类型 internet

技术详情

分类 Payload
质量 575.00 kg
干质量 530.00 kg
长度 0.30 m
跨度 29.00 m
形状 ? Box + pan
制造商 SPXS
平台类型 Starlink V2MO
阶段状态 In Orbit
所有者/国家 SPXS/US

Most Searched